Home > Time Zones > World Clock > Weather > Italy > Genoa > Past weeks

Flag for Italy Weather past 2 weeks in Genoa, Italy

Now
41 °F

Passing clouds.


Feels Like: 35 °F
Forecast: 37 / 47 °F
Wind: 10 mph from Northeast

Location: Genova / Sestri

Current Time: Dec 28, 2014 at 10:32:34 AM

Latest Report: Dec 28, 2014 at 9:50 AM


Visibility: N/A

Pressure: 29.50 "Hg

Humidity: 57%

Dew point: 27 °F

Location of GenoaLocation

Historic Weather in Genoa — Graph

°F

Genoa temperature yesterday

Maximum temperature yesterday: 54 °F (at 8:20 AM)
Minimum temperature yesterday: 36 °F (at 11:20 PM)
Average temperature yesterday: 45 °F

Past Weeks' High & Low Weather Summary

 TemperatureHumidityPressure
High63 °F (Dec 18, 11:50 AM)94% (Dec 14, 1:20 PM)30.45 "Hg (Dec 14, 1:20 PM)
Low36 °F (Dec 27, 11:20 PM)18% (Dec 26, 10:50 AM)29.47 "Hg (Dec 28, 4:20 AM)
Average54 °F73%30.13 "Hg
* Reported Dec 13 9:20 AM — Dec 28 9:20 AM, Genoa, Weather by CustomWeather, © 2014

Note: Actual official high and low records may vary slightly from our data, if they occured in-between our weather recording intervals... More about our weather records

Advertising

Genoa weather history for previous 24 hours

 ConditionsComfort  
Time TempWeatherWind HumidityBarometerVisibility
9:20 AM
Dec 28
39 °FPassing clouds.14 mph61%29.50 "HgN/A
8:50 AM39 °FScattered clouds.6 mph61%29.50 "HgN/A
8:20 AM37 °FScattered clouds.7 mph65%29.47 "HgN/A
7:50 AM39 °FPassing clouds.6 mph61%29.47 "HgN/A
7:20 AM39 °FPassing clouds.5 mph61%29.47 "HgN/A
6:50 AM37 °FPassing clouds.12 mph65%29.47 "HgN/A
6:20 AM36 °FClear.13 mph75%29.47 "Hg10 mi
5:50 AM37 °FPassing clouds.8 mph70%29.47 "HgN/A
5:20 AM36 °FPassing clouds.8 mph75%29.47 "HgN/A
4:20 AM36 °FPassing clouds.7 mph75%29.47 "HgN/A
3:50 AM36 °FPassing clouds.6 mph75%29.50 "HgN/A
3:20 AM36 °FPassing clouds.3 mph75%29.50 "HgN/A
2:50 AM36 °FClear.3 mph75%29.50 "Hg10 mi
2:20 AM36 °FClear.2 mph75%29.50 "Hg10 mi
1:50 AM36 °FClear.8 mph75%29.50 "Hg10 mi
1:20 AM36 °FPassing clouds.9 mph75%29.53 "HgN/A
12:50 AM36 °FPassing clouds.9 mph75%29.50 "HgN/A
12:20 AM37 °FClear.1 mph70%29.53 "Hg10 mi
11:50 PM
Dec 27
36 °FClear.2 mph75%29.53 "Hg10 mi
11:20 PM36 °FClear.2 mph75%29.53 "Hg10 mi
10:50 PM37 °FClear.3 mph70%29.53 "Hg10 mi
10:20 PM41 °FPassing clouds.13 mph61%29.53 "HgN/A
9:50 PM39 °FPassing clouds.9 mph70%29.53 "HgN/A
9:20 PM39 °FPassing clouds.8 mph65%29.53 "HgN/A
8:50 PM37 °FPassing clouds.12 mph70%29.53 "HgN/A
8:20 PM37 °FPassing clouds.8 mph70%29.56 "HgN/A
7:50 PM37 °FPassing clouds.5 mph70%29.56 "HgN/A
7:20 PM37 °FPassing clouds.9 mph75%29.56 "HgN/A
6:50 PM37 °FPassing clouds.6 mph75%29.56 "HgN/A
6:20 PM39 °FPassing clouds.9 mph65%29.56 "HgN/A
5:50 PM39 °FPassing clouds.6 mph65%29.56 "HgN/A
5:20 PM37 °FPassing clouds.3 mph70%29.56 "HgN/A
4:50 PM39 °FPartly sunny.16 mph70%29.56 "HgN/A
4:20 PM39 °FPartly sunny.22 mph70%29.56 "HgN/A
3:50 PM43 °FPartly sunny.12 mph57%29.59 "HgN/A
3:20 PM41 °FPartly sunny.12 mph66%29.59 "HgN/A
2:50 PM43 °FPartly sunny.10 mph57%29.62 "HgN/A
2:20 PM43 °FPartly sunny.10 mph61%29.62 "HgN/A
1:50 PM46 °FPartly sunny.9 mph66%29.59 "HgN/A
1:20 PM50 °FPartly sunny.5 mph67%29.62 "HgN/A
12:50 PM52 °FPartly sunny.13 mph67%29.65 "HgN/A
12:20 PM54 °FPartly sunny.16 mph72%29.71 "HgN/A
11:50 AM54 °FPartly sunny.17 mph67%29.74 "HgN/A
11:20 AM52 °FRain. Partly sunny.18 mph77%29.80 "Hg2 mi
10:50 AM54 °FPartly sunny.18 mph67%29.83 "HgN/A
10:20 AM54 °FPartly sunny.20 mph67%29.86 "HgN/A
Weather by CustomWeather, © 2014

See weather overviewHow to use our weather pages